Regional Weather Roundup
Issued by NWS

Home | Current Version | Previous Version | Text Only | Print | Product List | Glossary Off
Versions: 1 2 3 4 5 6 7 8 9 10 11 12 13 14 15 16 17 18 19 20 21 22 23 24 25 26 27 28 29 30 31 32 33 34 35 36 37 38 39 40 41 42 43 44 45 46 47 48 49 50

000
ASUS43 KLOT 010200
RWRIL

ILLINOIS REGIONAL WEATHER ROUNDUP
NATIONAL WEATHER SERVICE CHICAGO/ROMEOVILLE IL
900 PM CDT FRI OCT 31 2014

NOTE: "FAIR" INDICATES FEW OR NO CLOUDS BELOW 12,000 FEET WITH NO
SIGNIFICANT WEATHER AND/OR OBSTRUCTIONS TO VISIBILITY.

* THESE STATIONS ARE NOT UNDER NWS QUALITY CONTROL. THEY ALSO MAY NOT
  REPORT WEATHER SUCH AS PRECIPITATION OR FOG.

ILZ001-002-007-009-015-016-024-010300-
NORTHWEST ILLINOIS

CITY           SKY/WX    TMP DP  RH WIND       PRES   REMARKS
MOLINE         CLEAR     35  18  49 N8        30.42S WCI  29
STERLING*      CLEAR     32  18  55 N9        30.41S WCI  24
$$

ILZ003-004-008-010-011-017-018-010300-
NORTH CENTRAL ILLINOIS

CITY           SKY/WX    TMP DP  RH WIND       PRES   REMARKS
ROCKFORD       MOCLDY    35  18  49 N12       30.41R WCI  27
FREEPORT*      CLEAR     28  18  67 N7        30.42S WCI  21
ROCHELLE*      CLOUDY    35  19  52 N16       30.38S WCI  25
$$

ILZ005-006-012>014-019>023-010300-
NORTHEAST ILLINOIS

CITY           SKY/WX    TMP DP  RH WIND       PRES   REMARKS
CHICAGO-OHARE  FLURRIES  36  19  50 N24G33    30.32S WCI  24
CHICAGO-MIDWAY CLOUDY    39  28  64 N24G32    30.31S WCI  28
AURORA         CLOUDY    37  16  42 N21G30    30.35R WCI  26
LANSING*       LGT RAIN  37  30  76 N13G26    30.28S WCI  29
WAUKEGAN       LGT SNOW  35  21  56 N12G23    30.34R WCI  27
DUPAGE AIRPORT CLOUDY    37  18  46 N18G31    30.33S WCI  27
WHEELING       FLURRIES  37  22  54 N15G28    30.35R WCI  28
NORTHERLY ISL    N/A     39  31  73 N31         N/A  WCI  27
$$

LMZ740>746-010300-
SOUTHERN LAKE MICHIGAN

STATION/POSITION SKY/WX   TEMP    WIND        PRES    VSBY  WAVE
                          AIR SEA DIR/SP/G                  HT/PER
                          (F)     (DEG/KT/KT) (MB)    (MI)  (FT/S)
SOUTHERN BUOY              39 48  360/ 29/ 35 1025.7R        16/10
WAUKEGAN HARBOR            38     340/ 14/ 41   N/A
BURNHAM HARBOR             36     350/ 22/ 35   N/A
CALUMET HARBOR             38     340/ 22/ 36 1024.6R
MICHIGAN CITY              40     360/ 38/ 46   N/A
$$

ILZ025>027-034>036-040-047-049-050-058-095>099-010300-
WEST-CENTRAL ILLINOIS

CITY           SKY/WX    TMP DP  RH WIND       PRES   REMARKS
QUINCY         CLEAR     35  21  56 N12       30.41R WCI  27
MACOMB*        CLEAR     31  22  69 N7        30.43R WCI  25
$$

ILZ028>032-037-038-041>044-048-051>054-059>061-010300-
CENTRAL ILLINOIS

CITY           SKY/WX    TMP DP  RH WIND       PRES   REMARKS
DECATUR        PTCLDY    36  22  56 N20G26    30.33S WCI  25
PEORIA         CLEAR     36  19  50 N9        30.39R WCI  29
SPRINGFIELD    MOCLDY    36  22  56 N9        30.38R WCI  29
TAYLORVILLE    NOT AVBL
$$

ILZ033-039-045-046-055>057-062-063-010300-
EAST-CENTRAL ILLINOIS

CITY           SKY/WX    TMP DP  RH WIND       PRES   REMARKS
CHAMPAIGN      PTCLDY    36  21  54 N23G31    30.28R WCI  24
MATTOON        CLEAR     35  22  58 N20       30.27S WCI  24
$$

ILZ079-100>102-010300-
SOUTHWEST ILLINOIS

CITY           SKY/WX    TMP DP  RH WIND       PRES   REMARKS
CAHOKIA*       CLEAR     41  23  48 N15       30.37S
SPARTA*        CLEAR     39  22  51 N12G17    30.34S WCI  32
$$

ILZ064>066-069>071-074>076-080>082-084>086-088>090-092>094-010300-
SOUTH-CENTRAL ILLINOIS

CITY           SKY/WX    TMP DP  RH WIND       PRES   REMARKS
CARBONDALE     CLEAR     39  22  50 N10       30.32R WCI  32
MARION         CLEAR     41  23  48 N12G20    30.32R
MT. VERNON     PTCLDY    39  19  45 N9G16     30.31S WCI  33
SALEM*         CLEAR     39  24  55 N21       30.32S WCI  29
$$

ILZ067-068-072-073-078-083-087-091-010300-
SOUTHEAST ILLINOIS

CITY           SKY/WX    TMP DP  RH WIND       PRES   REMARKS
LAWRENCEVILLE  CLOUDY    40  26  57 N26G38    30.22R
HARRISBURG*    PTCLDY    40  23  50 NW17      30.30R
ROBINSON*      CLOUDY    41  28  60 N26G38    30.24R
$$

ABBREVIATIONS USED IN REMARKS
   TC - TEMPERATURE IN CELSIUS
  WCI - WIND CHILL INDEX
   HX - HEAT INDEX
  VSB - VISIBILITY
$$




USA.gov is the U.S. government's official web portal to all federal, state and local government web resources and services.